owner,sensor,date,latitude,longitude,vertical_datum,mass_concentration_of_oxygen_in_sea_water,qcFlag 
SCCF RECON,ioos:station:SCCF:12:1,2010-07-01T00:00:00Z,26.4966,-82.1479,2.071,5.35,1111122 
SCCF RECON,ioos:station:SCCF:12:1,2010-07-01T01:00:00Z,26.4966,-82.1479,2.0,5.28,1111122 
SCCF RECON,ioos:station:SCCF:12:1,2010-07-01T02:00:00Z,26.4966,-82.1479,1.908,5.76,1111122 
SCCF RECON,ioos:station:SCCF:12:1,2010-07-01T03:00:00Z,26.4966,-82.1479,1.84,5.96,1111122 
SCCF RECON,ioos:station:SCCF:12:1,2010-07-01T04:00:00Z,26.4966,-82.1479,1.83,5.73,1111122 
SCCF RECON,ioos:station:SCCF:12:1,2010-07-01T05:00:00Z,26.4966,-82.1479,1.889,5.42,1111122 
SCCF RECON,ioos:station:SCCF:12:1,2010-07-01T06:00:00Z,26.4966,-82.1479,2.02,5.27,1111122 
SCCF RECON,ioos:station:SCCF:12:1,2010-07-01T07:00:00Z,26.4966,-82.1479,2.17,5.12,1111122 
SCCF RECON,ioos:station:SCCF:12:1,2010-07-01T08:00:00Z,26.4966,-82.1479,2.25,5.22,1111122 
SCCF RECON,ioos:station:SCCF:12:1,2010-07-01T09:00:00Z,26.4966,-82.1479,2.276,5.15,1111122 
SCCF RECON,ioos:station:SCCF:12:1,2010-07-01T10:00:00Z,26.4966,-82.1479,2.248,5.27,1111122 
SCCF RECON,ioos:station:SCCF:12:1,2010-07-01T11:00:00Z,26.4966,-82.1479,2.21,5.11,1111122 
SCCF RECON,ioos:station:SCCF:12:1,2010-07-01T12:00:00Z,26.4966,-82.1479,2.17,5.16,1111122 
SCCF RECON,ioos:station:SCCF:12:1,2010-07-01T13:00:00Z,26.4966,-82.1479,2.147,4.98,1111122 
SCCF RECON,ioos:station:SCCF:12:1,2010-07-01T14:00:00Z,26.4966,-82.1479,2.109,5.08,1111122 
SCCF RECON,ioos:station:SCCF:12:1,2010-07-01T15:00:00Z,26.4966,-82.1479,2.06,5.0,1111122 
SCCF RECON,ioos:station:SCCF:12:1,2010-07-01T16:00:00Z,26.4966,-82.1479,2.07,5.35,1111122 
SCCF RECON,ioos:station:SCCF:12:1,2010-07-01T17:00:00Z,26.4966,-82.1479,2.12,5.31,1111122 
SCCF RECON,ioos:station:SCCF:12:1,2010-07-01T18:00:00Z,26.4966,-82.1479,2.2,5.43,1111122 
SCCF RECON,ioos:station:SCCF:12:1,2010-07-01T19:00:00Z,26.4966,-82.1479,2.26,5.4,1111122 
SCCF RECON,ioos:station:SCCF:12:1,2010-07-01T20:00:00Z,26.4966,-82.1479,2.31,5.82,1111122 
SCCF RECON,ioos:station:SCCF:12:1,2010-07-01T21:00:00Z,26.4966,-82.1479,2.31,6.37,1111122 
SCCF RECON,ioos:station:SCCF:12:1,2010-07-01T22:00:00Z,26.4966,-82.1479,2.28,5.75,1111122 
SCCF RECON,ioos:station:SCCF:12:1,2010-07-01T23:00:00Z,26.4966,-82.1479,2.2,5.88,1111122 
SCCF RECON,ioos:station:SCCF:12:1,2010-07-02T00:00:00Z,26.4966,-82.1479,2.109,5.73,1111122 
SCCF RECON,ioos:station:SCCF:12:1,2010-07-02T01:00:00Z,26.4966,-82.1479,1.997,5.57,1111122 
SCCF RECON,ioos:station:SCCF:12:1,2010-07-02T02:00:00Z,26.4966,-82.1479,1.9,5.75,1111122 
SCCF RECON,ioos:station:SCCF:12:1,2010-07-02T03:00:00Z,26.4966,-82.1479,1.83,5.71,1111122 
SCCF RECON,ioos:station:SCCF:12:1,2010-07-02T04:00:00Z,26.4966,-82.1479,1.81,5.58,1111122 
SCCF RECON,ioos:station:SCCF:12:1,2010-07-02T05:00:00Z,26.4966,-82.1479,1.865,5.53,1111122 
SCCF RECON,ioos:station:SCCF:12:1,2010-07-02T06:00:00Z,26.4966,-82.1479,1.941,5.55,1111122 
SCCF RECON,ioos:station:SCCF:12:1,2010-07-02T07:00:00Z,26.4966,-82.1479,2.05,5.44,1111122 
SCCF RECON,ioos:station:SCCF:12:1,2010-07-02T08:00:00Z,26.4966,-82.1479,2.17,5.45,1111122 
SCCF RECON,ioos:station:SCCF:12:1,2010-07-02T09:00:00Z,26.4966,-82.1479,2.24,5.49,1111122 
SCCF RECON,ioos:station:SCCF:12:1,2010-07-02T10:00:00Z,26.4966,-82.1479,2.248,5.36,1111122 
SCCF RECON,ioos:station:SCCF:12:1,2010-07-02T11:00:00Z,26.4966,-82.1479,2.21,5.26,1111122 
SCCF RECON,ioos:station:SCCF:12:1,2010-07-02T12:00:00Z,26.4966,-82.1479,2.156,5.29,1111122 
SCCF RECON,ioos:station:SCCF:12:1,2010-07-02T13:00:00Z,26.4966,-82.1479,2.1,5.18,1111122 
SCCF RECON,ioos:station:SCCF:12:1,2010-07-02T14:00:00Z,26.4966,-82.1479,2.048,5.18,1111122 
SCCF RECON,ioos:station:SCCF:12:1,2010-07-02T15:00:00Z,26.4966,-82.1479,1.986,5.39,1111122 
SCCF RECON,ioos:station:SCCF:12:1,2010-07-02T16:00:00Z,26.4966,-82.1479,1.953,5.54,1111122 
SCCF RECON,ioos:station:SCCF:12:1,2010-07-02T17:00:00Z,26.4966,-82.1479,2.0,5.71,1111122 
SCCF RECON,ioos:station:SCCF:12:1,2010-07-02T18:00:00Z,26.4966,-82.1479,2.056,6.07,1111122 
SCCF RECON,ioos:station:SCCF:12:1,2010-07-02T19:00:00Z,26.4966,-82.1479,2.136,6.13,1111122 
SCCF RECON,ioos:station:SCCF:12:1,2010-07-02T20:00:00Z,26.4966,-82.1479,2.187,6.36,1111122 
SCCF RECON,ioos:station:SCCF:12:1,2010-07-02T21:00:00Z,26.4966,-82.1479,2.197,6.54,1111122 
SCCF RECON,ioos:station:SCCF:12:1,2010-07-02T22:00:00Z,26.4966,-82.1479,2.179,6.74,1111122 
SCCF RECON,ioos:station:SCCF:12:1,2010-07-02T23:00:00Z,26.4966,-82.1479,2.144,6.74,1111122 
SCCF RECON,ioos:station:SCCF:12:1,2010-07-03T00:00:00Z,26.4966,-82.1479,2.123,6.61,1111122 
SCCF RECON,ioos:station:SCCF:12:1,2010-07-03T01:00:00Z,26.4966,-82.1479,2.047,6.56,1111122 
SCCF RECON,ioos:station:SCCF:12:1,2010-07-03T02:00:00Z,26.4966,-82.1479,1.969,6.48,1111122 
SCCF RECON,ioos:station:SCCF:12:1,2010-07-03T03:00:00Z,26.4966,-82.1479,1.89,6.37,1111122 
SCCF RECON,ioos:station:SCCF:12:1,2010-07-03T04:00:00Z,26.4966,-82.1479,1.84,6.41,1111122 
SCCF RECON,ioos:station:SCCF:12:1,2010-07-03T05:00:00Z,26.4966,-82.1479,1.84,6.31,1111122 
SCCF RECON,ioos:station:SCCF:12:1,2010-07-03T06:00:00Z,26.4966,-82.1479,1.93,6.22,1111122 
SCCF RECON,ioos:station:SCCF:12:1,2010-07-03T07:00:00Z,26.4966,-82.1479,2.052,6.01,1111122 
SCCF RECON,ioos:station:SCCF:12:1,2010-07-03T08:00:00Z,26.4966,-82.1479,2.17,5.88,1111122 
SCCF RECON,ioos:station:SCCF:12:1,2010-07-03T09:00:00Z,26.4966,-82.1479,2.259,5.93,1111122 
SCCF RECON,ioos:station:SCCF:12:1,2010-07-03T10:00:00Z,26.4966,-82.1479,2.28,5.77,1111122 
SCCF RECON,ioos:station:SCCF:12:1,2010-07-03T11:00:00Z,26.4966,-82.1479,2.31,5.76,1111122 
SCCF RECON,ioos:station:SCCF:12:1,2010-07-03T12:00:00Z,26.4966,-82.1479,2.299,5.79,1111122 
SCCF RECON,ioos:station:SCCF:12:1,2010-07-03T13:00:00Z,26.4966,-82.1479,2.239,5.59,1111122 
SCCF RECON,ioos:station:SCCF:12:1,2010-07-03T14:00:00Z,26.4966,-82.1479,2.157,5.45,1111122 
SCCF RECON,ioos:station:SCCF:12:1,2010-07-03T15:00:00Z,26.4966,-82.1479,2.092,5.42,1111122 
SCCF RECON,ioos:station:SCCF:12:1,2010-07-03T16:00:00Z,26.4966,-82.1479,2.033,5.33,1111122 
SCCF RECON,ioos:station:SCCF:12:1,2010-07-03T17:00:00Z,26.4966,-82.1479,1.98,5.42,1111122 
SCCF RECON,ioos:station:SCCF:12:1,2010-07-03T18:00:00Z,26.4966,-82.1479,1.96,5.61,1111122 
SCCF RECON,ioos:station:SCCF:12:1,2010-07-03T19:00:00Z,26.4966,-82.1479,2.0,5.35,1111122 
SCCF RECON,ioos:station:SCCF:12:1,2010-07-03T20:00:00Z,26.4966,-82.1479,2.093,5.56,1111122 
SCCF RECON,ioos:station:SCCF:12:1,2010-07-03T21:00:00Z,26.4966,-82.1479,2.19,5.52,1111122 
SCCF RECON,ioos:station:SCCF:12:1,2010-07-03T22:00:00Z,26.4966,-82.1479,2.241,5.34,1111122 
SCCF RECON,ioos:station:SCCF:12:1,2010-07-03T23:00:00Z,26.4966,-82.1479,2.287,5.65,1111122 
SCCF RECON,ioos:station:SCCF:12:1,2010-07-04T00:00:00Z,26.4966,-82.1479,2.239,6.09,1111122 
SCCF RECON,ioos:station:SCCF:12:1,2010-07-04T01:00:00Z,26.4966,-82.1479,2.151,6.14,1111122 
SCCF RECON,ioos:station:SCCF:12:1,2010-07-04T02:00:00Z,26.4966,-82.1479,2.08,5.89,1111122 
SCCF RECON,ioos:station:SCCF:12:1,2010-07-04T03:00:00Z,26.4966,-82.1479,2.029,5.72,1111122 
SCCF RECON,ioos:station:SCCF:12:1,2010-07-04T04:00:00Z,26.4966,-82.1479,1.97,5.56,1111122 
SCCF RECON,ioos:station:SCCF:12:1,2010-07-04T05:00:00Z,26.4966,-82.1479,1.949,5.37,1111122 
SCCF RECON,ioos:station:SCCF:12:1,2010-07-04T06:00:00Z,26.4966,-82.1479,1.98,5.39,1111122 
SCCF RECON,ioos:station:SCCF:12:1,2010-07-04T07:00:00Z,26.4966,-82.1479,2.08,5.52,1111122 
SCCF RECON,ioos:station:SCCF:12:1,2010-07-04T08:00:00Z,26.4966,-82.1479,2.18,5.38,1111122 
SCCF RECON,ioos:station:SCCF:12:1,2010-07-04T09:00:00Z,26.4966,-82.1479,2.27,5.25,1111122 
SCCF RECON,ioos:station:SCCF:12:1,2010-07-04T10:00:00Z,26.4966,-82.1479,2.333,5.32,1111122 
SCCF RECON,ioos:station:SCCF:12:1,2010-07-04T11:00:00Z,26.4966,-82.1479,2.38,5.11,1111122 
SCCF RECON,ioos:station:SCCF:12:1,2010-07-04T12:00:00Z,26.4966,-82.1479,2.36,5.18,1111122 
SCCF RECON,ioos:station:SCCF:12:1,2010-07-04T13:00:00Z,26.4966,-82.1479,2.291,5.11,1111122 
SCCF RECON,ioos:station:SCCF:12:1,2010-07-04T14:00:00Z,26.4966,-82.1479,2.23,5.34,1111122 
SCCF RECON,ioos:station:SCCF:12:1,2010-07-04T15:00:00Z,26.4966,-82.1479,2.16,5.39,1111122 
SCCF RECON,ioos:station:SCCF:12:1,2010-07-04T16:00:00Z,26.4966,-82.1479,2.071,5.32,1111122 
SCCF RECON,ioos:station:SCCF:12:1,2010-07-04T17:00:00Z,26.4966,-82.1479,1.99,5.48,1111122 
SCCF RECON,ioos:station:SCCF:12:1,2010-07-04T18:00:00Z,26.4966,-82.1479,1.941,5.5,1111122 
SCCF RECON,ioos:station:SCCF:12:1,2010-07-04T19:00:00Z,26.4966,-82.1479,1.932,5.44,1111122 
SCCF RECON,ioos:station:SCCF:12:1,2010-07-04T20:00:00Z,26.4966,-82.1479,1.96,5.48,1111122 
SCCF RECON,ioos:station:SCCF:12:1,2010-07-04T21:00:00Z,26.4966,-82.1479,2.05,5.42,1111122 
SCCF RECON,ioos:station:SCCF:12:1,2010-07-04T22:00:00Z,26.4966,-82.1479,2.13,5.51,1111122 
SCCF RECON,ioos:station:SCCF:12:1,2010-07-04T23:00:00Z,26.4966,-82.1479,2.15,5.26,1111122 
SCCF RECON,ioos:station:SCCF:12:1,2010-07-05T00:00:00Z,26.4966,-82.1479,2.133,5.19,1111122 
SCCF RECON,ioos:station:SCCF:12:1,2010-07-05T01:00:00Z,26.4966,-82.1479,2.141,5.32,1111122 
SCCF RECON,ioos:station:SCCF:12:1,2010-07-05T02:00:00Z,26.4966,-82.1479,2.151,5.55,1111122 
SCCF RECON,ioos:station:SCCF:12:1,2010-07-05T03:00:00Z,26.4966,-82.1479,2.147,5.74,1111122 
SCCF RECON,ioos:station:SCCF:12:1,2010-07-05T04:00:00Z,26.4966,-82.1479,2.114,5.5,1111122 
SCCF RECON,ioos:station:SCCF:12:1,2010-07-05T05:00:00Z,26.4966,-82.1479,2.07,5.32,1111122 
SCCF RECON,ioos:station:SCCF:12:1,2010-07-05T06:00:00Z,26.4966,-82.1479,2.039,5.14,1111122 
SCCF RECON,ioos:station:SCCF:12:1,2010-07-05T07:00:00Z,26.4966,-82.1479,2.062,5.34,1111122 
SCCF RECON,ioos:station:SCCF:12:1,2010-07-05T08:00:00Z,26.4966,-82.1479,2.141,5.33,1111122 
SCCF RECON,ioos:station:SCCF:12:1,2010-07-05T09:00:00Z,26.4966,-82.1479,2.25,5.11,1111122 
SCCF RECON,ioos:station:SCCF:12:1,2010-07-05T10:00:00Z,26.4966,-82.1479,2.35,5.28,1111122 
SCCF RECON,ioos:station:SCCF:12:1,2010-07-05T11:00:00Z,26.4966,-82.1479,2.356,5.22,1111122 
SCCF RECON,ioos:station:SCCF:12:1,2010-07-05T12:00:00Z,26.4966,-82.1479,2.352,5.19,1111122 
SCCF RECON,ioos:station:SCCF:12:1,2010-07-05T13:00:00Z,26.4966,-82.1479,2.342,5.29,1111122 
SCCF RECON,ioos:station:SCCF:12:1,2010-07-05T14:00:00Z,26.4966,-82.1479,2.305,5.41,1111122 
SCCF RECON,ioos:station:SCCF:12:1,2010-07-05T15:00:00Z,26.4966,-82.1479,2.231,5.36,1111122 
SCCF RECON,ioos:station:SCCF:12:1,2010-07-05T16:00:00Z,26.4966,-82.1479,2.154,5.3,1111122 
SCCF RECON,ioos:station:SCCF:12:1,2010-07-05T17:00:00Z,26.4966,-82.1479,2.049,5.16,1111122 
SCCF RECON,ioos:station:SCCF:12:1,2010-07-05T18:00:00Z,26.4966,-82.1479,1.949,5.09,1111122 
SCCF RECON,ioos:station:SCCF:12:1,2010-07-05T19:00:00Z,26.4966,-82.1479,1.872,5.13,1111122 
SCCF RECON,ioos:station:SCCF:12:1,2010-07-05T20:00:00Z,26.4966,-82.1479,1.908,5.28,1111122 
SCCF RECON,ioos:station:SCCF:12:1,2010-07-05T21:00:00Z,26.4966,-82.1479,2.13,5.4,1111122 
SCCF RECON,ioos:station:SCCF:12:1,2010-07-05T22:00:00Z,26.4966,-82.1479,2.043,5.14,1111122 
SCCF RECON,ioos:station:SCCF:12:1,2010-07-05T23:00:00Z,26.4966,-82.1479,2.027,5.59,1111122 
SCCF RECON,ioos:station:SCCF:12:1,2010-07-06T00:00:00Z,26.4966,-82.1479,2.05,5.65,1111122 
SCCF RECON,ioos:station:SCCF:12:1,2010-07-06T01:00:00Z,26.4966,-82.1479,2.094,5.71,1111122 
SCCF RECON,ioos:station:SCCF:12:1,2010-07-06T02:00:00Z,26.4966,-82.1479,2.12,5.63,1111122 
SCCF RECON,ioos:station:SCCF:12:1,2010-07-06T03:00:00Z,26.4966,-82.1479,2.075,5.54,1111122 
SCCF RECON,ioos:station:SCCF:12:1,2010-07-06T04:00:00Z,26.4966,-82.1479,2.051,5.62,1111122 
SCCF RECON,ioos:station:SCCF:12:1,2010-07-06T05:00:00Z,26.4966,-82.1479,2.059,5.4,1111122 
SCCF RECON,ioos:station:SCCF:12:1,2010-07-06T06:00:00Z,26.4966,-82.1479,2.091,5.41,1111122 
SCCF RECON,ioos:station:SCCF:12:1,2010-07-06T07:00:00Z,26.4966,-82.1479,2.08,5.48,1111122 
SCCF RECON,ioos:station:SCCF:12:1,2010-07-06T08:00:00Z,26.4966,-82.1479,2.089,5.44,1111122 
SCCF RECON,ioos:station:SCCF:12:1,2010-07-06T09:00:00Z,26.4966,-82.1479,2.157,5.47,1111122 
SCCF RECON,ioos:station:SCCF:12:1,2010-07-06T10:00:00Z,26.4966,-82.1479,2.24,5.41,1111122 
SCCF RECON,ioos:station:SCCF:12:1,2010-07-06T11:00:00Z,26.4966,-82.1479,2.311,5.41,1111122 
SCCF RECON,ioos:station:SCCF:12:1,2010-07-06T12:00:00Z,26.4966,-82.1479,2.358,5.17,1111122 
SCCF RECON,ioos:station:SCCF:12:1,2010-07-06T13:00:00Z,26.4966,-82.1479,2.362,5.29,1111122 
SCCF RECON,ioos:station:SCCF:12:1,2010-07-06T14:00:00Z,26.4966,-82.1479,2.317,5.49,1111122 
SCCF RECON,ioos:station:SCCF:12:1,2010-07-06T15:00:00Z,26.4966,-82.1479,2.246,5.56,1111122 
SCCF RECON,ioos:station:SCCF:12:1,2010-07-06T16:00:00Z,26.4966,-82.1479,2.169,5.51,1111122 
SCCF RECON,ioos:station:SCCF:12:1,2010-07-06T17:00:00Z,26.4966,-82.1479,2.079,5.6,1111122 
SCCF RECON,ioos:station:SCCF:12:1,2010-07-06T18:00:00Z,26.4966,-82.1479,1.98,5.5,1111122 
SCCF RECON,ioos:station:SCCF:12:1,2010-07-06T19:00:00Z,26.4966,-82.1479,1.891,5.73,1111122 
SCCF RECON,ioos:station:SCCF:12:1,2010-07-06T20:00:00Z,26.4966,-82.1479,1.82,5.65,1111122 
SCCF RECON,ioos:station:SCCF:12:1,2010-07-06T21:00:00Z,26.4966,-82.1479,1.81,6.02,1111122 
SCCF RECON,ioos:station:SCCF:12:1,2010-07-06T22:00:00Z,26.4966,-82.1479,1.88,6.62,1111122 
SCCF RECON,ioos:station:SCCF:12:1,2010-07-06T23:00:00Z,26.4966,-82.1479,2.012,6.29,1111122 
SCCF RECON,ioos:station:SCCF:12:1,2010-07-07T00:00:00Z,26.4966,-82.1479,2.099,6.01,1111122 
SCCF RECON,ioos:station:SCCF:12:1,2010-07-07T01:00:00Z,26.4966,-82.1479,2.14,5.72,1111122 
SCCF RECON,ioos:station:SCCF:12:1,2010-07-07T02:00:00Z,26.4966,-82.1479,2.149,5.54,1111122 
SCCF RECON,ioos:station:SCCF:12:1,2010-07-07T03:00:00Z,26.4966,-82.1479,2.136,5.9,1111122 
SCCF RECON,ioos:station:SCCF:12:1,2010-07-07T04:00:00Z,26.4966,-82.1479,2.12,6.61,1111122 
SCCF RECON,ioos:station:SCCF:12:1,2010-07-07T05:00:00Z,26.4966,-82.1479,2.13,6.61,1111122 
SCCF RECON,ioos:station:SCCF:12:1,2010-07-07T06:00:00Z,26.4966,-82.1479,2.15,6.52,1111122 
SCCF RECON,ioos:station:SCCF:12:1,2010-07-07T07:00:00Z,26.4966,-82.1479,2.14,6.48,1111122 
SCCF RECON,ioos:station:SCCF:12:1,2010-07-07T08:00:00Z,26.4966,-82.1479,2.12,6.5,1111122 
SCCF RECON,ioos:station:SCCF:12:1,2010-07-07T09:00:00Z,26.4966,-82.1479,2.15,6.08,1111122 
SCCF RECON,ioos:station:SCCF:12:1,2010-07-07T10:00:00Z,26.4966,-82.1479,2.199,5.87,1111122 
SCCF RECON,ioos:station:SCCF:12:1,2010-07-07T11:00:00Z,26.4966,-82.1479,2.25,6.04,1111122 
SCCF RECON,ioos:station:SCCF:12:1,2010-07-07T12:00:00Z,26.4966,-82.1479,2.31,5.83,1111122 
SCCF RECON,ioos:station:SCCF:12:1,2010-07-07T13:00:00Z,26.4966,-82.1479,2.35,5.81,1111122 
SCCF RECON,ioos:station:SCCF:12:1,2010-07-07T14:00:00Z,26.4966,-82.1479,2.36,5.63,1111122 
SCCF RECON,ioos:station:SCCF:12:1,2010-07-07T15:00:00Z,26.4966,-82.1479,2.339,5.58,1111122 
SCCF RECON,ioos:station:SCCF:12:1,2010-07-07T16:00:00Z,26.4966,-82.1479,2.26,6.08,1111122 
SCCF RECON,ioos:station:SCCF:12:1,2010-07-07T17:00:00Z,26.4966,-82.1479,2.137,6.68,1111122 
SCCF RECON,ioos:station:SCCF:12:1,2010-07-07T18:00:00Z,26.4966,-82.1479,1.99,6.63,1111122 
SCCF RECON,ioos:station:SCCF:12:1,2010-07-07T19:00:00Z,26.4966,-82.1479,1.86,6.98,1111122 
SCCF RECON,ioos:station:SCCF:12:1,2010-07-07T20:00:00Z,26.4966,-82.1479,1.75,6.91,1111122 
SCCF RECON,ioos:station:SCCF:12:1,2010-07-07T21:00:00Z,26.4966,-82.1479,1.69,6.79,1111122 
SCCF RECON,ioos:station:SCCF:12:1,2010-07-07T22:00:00Z,26.4966,-82.1479,1.684,6.91,1111122 
SCCF RECON,ioos:station:SCCF:12:1,2010-07-07T23:00:00Z,26.4966,-82.1479,1.769,7.54,1111122 
SCCF RECON,ioos:station:SCCF:12:1,2010-07-08T00:00:00Z,26.4966,-82.1479,1.873,7.06,1111122 
SCCF RECON,ioos:station:SCCF:12:1,2010-07-08T01:00:00Z,26.4966,-82.1479,1.97,7.48,1111122 
SCCF RECON,ioos:station:SCCF:12:1,2010-07-08T02:00:00Z,26.4966,-82.1479,2.05,7.72,1111122 
SCCF RECON,ioos:station:SCCF:12:1,2010-07-08T03:00:00Z,26.4966,-82.1479,2.12,7.26,1111122 
SCCF RECON,ioos:station:SCCF:12:1,2010-07-08T04:00:00Z,26.4966,-82.1479,2.16,7.59,1111122 
SCCF RECON,ioos:station:SCCF:12:1,2010-07-08T05:00:00Z,26.4966,-82.1479,2.164,7.5,1111122 
SCCF RECON,ioos:station:SCCF:12:1,2010-07-08T06:00:00Z,26.4966,-82.1479,2.13,7.17,1111122 
SCCF RECON,ioos:station:SCCF:12:1,2010-07-08T07:00:00Z,26.4966,-82.1479,2.09,6.83,1111122 
SCCF RECON,ioos:station:SCCF:12:1,2010-07-08T08:00:00Z,26.4966,-82.1479,2.05,6.74,1111122 
SCCF RECON,ioos:station:SCCF:12:1,2010-07-08T09:00:00Z,26.4966,-82.1479,2.051,6.76,1111122 
SCCF RECON,ioos:station:SCCF:12:1,2010-07-08T10:00:00Z,26.4966,-82.1479,2.11,6.62,1111122 
SCCF RECON,ioos:station:SCCF:12:1,2010-07-08T11:00:00Z,26.4966,-82.1479,2.2,6.53,1111122 
SCCF RECON,ioos:station:SCCF:12:1,2010-07-08T12:00:00Z,26.4966,-82.1479,2.298,6.43,1111122 
SCCF RECON,ioos:station:SCCF:12:1,2010-07-08T13:00:00Z,26.4966,-82.1479,2.38,6.46,1111122 
SCCF RECON,ioos:station:SCCF:12:1,2010-07-08T14:00:00Z,26.4966,-82.1479,2.421,6.14,1111122 
SCCF RECON,ioos:station:SCCF:12:1,2010-07-08T15:00:00Z,26.4966,-82.1479,2.443,6.57,1111122 
SCCF RECON,ioos:station:SCCF:12:1,2010-07-08T17:00:00Z,26.4966,-82.1479,2.246,7.03,1111122 
SCCF RECON,ioos:station:SCCF:12:1,2010-07-08T18:00:00Z,26.4966,-82.1479,2.107,7.06,1111122 
SCCF RECON,ioos:station:SCCF:12:1,2010-07-08T19:00:00Z,26.4966,-82.1479,1.96,7.55,1111122 
SCCF RECON,ioos:station:SCCF:12:1,2010-07-08T20:00:00Z,26.4966,-82.1479,1.83,7.69,1111122 
SCCF RECON,ioos:station:SCCF:12:1,2010-07-08T21:00:00Z,26.4966,-82.1479,1.72,7.25,1111122 
SCCF RECON,ioos:station:SCCF:12:1,2010-07-08T22:00:00Z,26.4966,-82.1479,1.637,7.4,1111122 
SCCF RECON,ioos:station:SCCF:12:1,2010-07-08T23:00:00Z,26.4966,-82.1479,1.62,8.04,1111122 
SCCF RECON,ioos:station:SCCF:12:1,2010-07-09T00:00:00Z,26.4966,-82.1479,1.69,7.95,1111122 
SCCF RECON,ioos:station:SCCF:12:1,2010-07-09T01:00:00Z,26.4966,-82.1479,1.821,7.51,1111122 
SCCF RECON,ioos:station:SCCF:12:1,2010-07-09T02:00:00Z,26.4966,-82.1479,1.972,7.34,1111122 
SCCF RECON,ioos:station:SCCF:12:1,2010-07-09T03:00:00Z,26.4966,-82.1479,2.119,7.31,1111122 
SCCF RECON,ioos:station:SCCF:12:1,2010-07-09T04:00:00Z,26.4966,-82.1479,2.2,6.96,1111122 
SCCF RECON,ioos:station:SCCF:12:1,2010-07-09T05:00:00Z,26.4966,-82.1479,2.22,7.24,1111122 
SCCF RECON,ioos:station:SCCF:12:1,2010-07-09T06:00:00Z,26.4966,-82.1479,2.19,7.12,1111122 
SCCF RECON,ioos:station:SCCF:12:1,2010-07-09T07:00:00Z,26.4966,-82.1479,2.14,7.03,1111122 
SCCF RECON,ioos:station:SCCF:12:1,2010-07-09T08:00:00Z,26.4966,-82.1479,2.13,6.94,1111122 
SCCF RECON,ioos:station:SCCF:12:1,2010-07-09T09:00:00Z,26.4966,-82.1479,2.15,6.83,1111122 
SCCF RECON,ioos:station:SCCF:12:1,2010-07-09T10:00:00Z,26.4966,-82.1479,2.17,6.77,1111122 
SCCF RECON,ioos:station:SCCF:12:1,2010-07-09T11:00:00Z,26.4966,-82.1479,2.228,6.74,1111122 
SCCF RECON,ioos:station:SCCF:12:1,2010-07-09T12:00:00Z,26.4966,-82.1479,2.33,6.37,1111122 
SCCF RECON,ioos:station:SCCF:12:1,2010-07-09T13:00:00Z,26.4966,-82.1479,2.4,6.04,1111122 
SCCF RECON,ioos:station:SCCF:12:1,2010-07-09T14:00:00Z,26.4966,-82.1479,2.469,6.21,1111122 
SCCF RECON,ioos:station:SCCF:12:1,2010-07-09T15:00:00Z,26.4966,-82.1479,2.506,6.27,1111122 
SCCF RECON,ioos:station:SCCF:12:1,2010-07-09T16:00:00Z,26.4966,-82.1479,2.498,6.23,1111122 
SCCF RECON,ioos:station:SCCF:12:1,2010-07-09T17:00:00Z,26.4966,-82.1479,2.405,5.79,1111122 
SCCF RECON,ioos:station:SCCF:12:1,2010-07-09T18:00:00Z,26.4966,-82.1479,2.27,5.37,1111122 
SCCF RECON,ioos:station:SCCF:12:1,2010-07-09T19:00:00Z,26.4966,-82.1479,2.111,5.96,1111122 
SCCF RECON,ioos:station:SCCF:12:1,2010-07-09T20:00:00Z,26.4966,-82.1479,1.97,6.56,1111122 
SCCF RECON,ioos:station:SCCF:12:1,2010-07-09T21:00:00Z,26.4966,-82.1479,1.83,6.75,1111122 
SCCF RECON,ioos:station:SCCF:12:1,2010-07-09T22:00:00Z,26.4966,-82.1479,1.7,6.84,1111122 
SCCF RECON,ioos:station:SCCF:12:1,2010-07-09T23:00:00Z,26.4966,-82.1479,1.61,7.03,1111122 
SCCF RECON,ioos:station:SCCF:12:1,2010-07-10T00:00:00Z,26.4966,-82.1479,1.58,6.8,1111122 
SCCF RECON,ioos:station:SCCF:12:1,2010-07-10T01:00:00Z,26.4966,-82.1479,1.7,6.75,1111122 
SCCF RECON,ioos:station:SCCF:12:1,2010-07-10T02:00:00Z,26.4966,-82.1479,1.87,6.71,1111122 
SCCF RECON,ioos:station:SCCF:12:1,2010-07-10T03:00:00Z,26.4966,-82.1479,2.026,6.22,1111122 
SCCF RECON,ioos:station:SCCF:12:1,2010-07-10T04:00:00Z,26.4966,-82.1479,2.15,6.31,1111122 
SCCF RECON,ioos:station:SCCF:12:1,2010-07-10T05:00:00Z,26.4966,-82.1479,2.21,6.39,1111122 
SCCF RECON,ioos:station:SCCF:12:1,2010-07-10T06:00:00Z,26.4966,-82.1479,2.22,6.75,1111122 
SCCF RECON,ioos:station:SCCF:12:1,2010-07-10T07:00:00Z,26.4966,-82.1479,2.17,6.84,1111122 
SCCF RECON,ioos:station:SCCF:12:1,2010-07-10T08:00:00Z,26.4966,-82.1479,2.12,6.75,1111122 
SCCF RECON,ioos:station:SCCF:12:1,2010-07-10T09:00:00Z,26.4966,-82.1479,2.11,6.12,1111122 
SCCF RECON,ioos:station:SCCF:12:1,2010-07-10T10:00:00Z,26.4966,-82.1479,2.15,6.29,1111122 
SCCF RECON,ioos:station:SCCF:12:1,2010-07-10T11:00:00Z,26.4966,-82.1479,2.2,5.69,1111122 
SCCF RECON,ioos:station:SCCF:12:1,2010-07-10T12:00:00Z,26.4966,-82.1479,2.277,5.64,1111122 
SCCF RECON,ioos:station:SCCF:12:1,2010-07-10T13:00:00Z,26.4966,-82.1479,2.347,5.93,1111122 
SCCF RECON,ioos:station:SCCF:12:1,2010-07-10T14:00:00Z,26.4966,-82.1479,2.421,5.69,1111122 
SCCF RECON,ioos:station:SCCF:12:1,2010-07-10T15:00:00Z,26.4966,-82.1479,2.5,5.52,1111122 
SCCF RECON,ioos:station:SCCF:12:1,2010-07-10T16:00:00Z,26.4966,-82.1479,2.541,5.91,1111122 
SCCF RECON,ioos:station:SCCF:12:1,2010-07-10T17:00:00Z,26.4966,-82.1479,2.519,6.16,1111122 
SCCF RECON,ioos:station:SCCF:12:1,2010-07-10T18:00:00Z,26.4966,-82.1479,2.423,5.67,1111122 
SCCF RECON,ioos:station:SCCF:12:1,2010-07-10T19:00:00Z,26.4966,-82.1479,2.279,6.74,1111122 
SCCF RECON,ioos:station:SCCF:12:1,2010-07-10T20:00:00Z,26.4966,-82.1479,2.113,6.32,1111122 
SCCF RECON,ioos:station:SCCF:12:1,2010-07-10T21:00:00Z,26.4966,-82.1479,1.953,6.54,1111122 
SCCF RECON,ioos:station:SCCF:12:1,2010-07-10T22:00:00Z,26.4966,-82.1479,1.809,6.92,1111122 
SCCF RECON,ioos:station:SCCF:12:1,2010-07-10T23:00:00Z,26.4966,-82.1479,1.683,6.99,1111122 
SCCF RECON,ioos:station:SCCF:12:1,2010-07-11T00:00:00Z,26.4966,-82.1479,1.594,6.91,1111122 
SCCF RECON,ioos:station:SCCF:12:1,2010-07-11T01:00:00Z,26.4966,-82.1479,1.576,7.32,1111122 
SCCF RECON,ioos:station:SCCF:12:1,2010-07-11T02:00:00Z,26.4966,-82.1479,1.7,6.8,1111122 
SCCF RECON,ioos:station:SCCF:12:1,2010-07-11T03:00:00Z,26.4966,-82.1479,1.889,6.55,1111122 
SCCF RECON,ioos:station:SCCF:12:1,2010-07-11T04:00:00Z,26.4966,-82.1479,2.043,6.76,1111122 
SCCF RECON,ioos:station:SCCF:12:1,2010-07-11T05:00:00Z,26.4966,-82.1479,2.16,6.41,1111122 
SCCF RECON,ioos:station:SCCF:12:1,2010-07-11T06:00:00Z,26.4966,-82.1479,2.228,6.36,1111122 
SCCF RECON,ioos:station:SCCF:12:1,2010-07-11T07:00:00Z,26.4966,-82.1479,2.229,6.27,1111122 
SCCF RECON,ioos:station:SCCF:12:1,2010-07-11T08:00:00Z,26.4966,-82.1479,2.16,6.24,1111122 
SCCF RECON,ioos:station:SCCF:12:1,2010-07-11T09:00:00Z,26.4966,-82.1479,2.091,6.39,1111122 
SCCF RECON,ioos:station:SCCF:12:1,2010-07-11T10:00:00Z,26.4966,-82.1479,2.074,6.31,1111122 
SCCF RECON,ioos:station:SCCF:12:1,2010-07-11T11:00:00Z,26.4966,-82.1479,2.097,6.03,1111122 
SCCF RECON,ioos:station:SCCF:12:1,2010-07-11T12:00:00Z,26.4966,-82.1479,2.15,5.41,1111122 
SCCF RECON,ioos:station:SCCF:12:1,2010-07-11T13:00:00Z,26.4966,-82.1479,2.238,5.76,1111122 
SCCF RECON,ioos:station:SCCF:12:1,2010-07-11T14:00:00Z,26.4966,-82.1479,2.348,5.36,1111122 
SCCF RECON,ioos:station:SCCF:12:1,2010-07-11T15:00:00Z,26.4966,-82.1479,2.459,5.38,1111122 
SCCF RECON,ioos:station:SCCF:12:1,2010-07-11T16:00:00Z,26.4966,-82.1479,2.531,5.29,1111122 
SCCF RECON,ioos:station:SCCF:12:1,2010-07-11T17:00:00Z,26.4966,-82.1479,2.55,6.09,1111122 
SCCF RECON,ioos:station:SCCF:12:1,2010-07-11T18:00:00Z,26.4966,-82.1479,2.499,6.4,1111122 
SCCF RECON,ioos:station:SCCF:12:1,2010-07-11T19:00:00Z,26.4966,-82.1479,2.379,6.21,1111122 
SCCF RECON,ioos:station:SCCF:12:1,2010-07-11T20:00:00Z,26.4966,-82.1479,2.22,6.48,1111122 
SCCF RECON,ioos:station:SCCF:12:1,2010-07-11T21:00:00Z,26.4966,-82.1479,2.054,6.14,1111122 